Date,TemperatureHighF,TemperatureAvgF,TemperatureLowF,DewpointHighF,DewpointAvgF,DewpointLowF,HumidityHigh,HumidityAvg,HumidityLow,PressureMaxIn,PressureMinIn,WindSpeedMaxMPH,WindSpeedAvgMPH,GustSpeedMaxMPH,PrecipitationSumIn
2013-1-1,77.9,65.6,54.0,64.2,58.4,53.1,99,80,55,30.24,30.05,14,2,15,1.20
2013-1-2,75.6,68.1,63.9,70.0,66.2,62.1,99,94,82,30.09,30.00,12,3,12,0.96
2013-1-3,76.1,65.4,59.4,71.4,64.0,59.0,99,96,71,30.19,30.04,7,2,7,0.00
2013-1-4,61.2,58.7,55.6,60.6,58.1,55.2,99,98,90,30.31,30.17,4,2,4,0.13
2013-1-5,74.3,63.5,56.3,62.2,58.6,53.1,99,85,64,30.33,30.20,9,2,9,0.19
2013-1-6,79.3,67.5,61.3,70.2,64.7,60.4,99,91,72,30.23,30.09,8,2,8,0.04
2013-1-7,67.3,63.2,60.1,64.9,60.5,55.8,99,91,75,30.23,30.12,11,3,11,0.05
2013-1-8,84.4,71.7,61.7,70.9,65.5,61.0,99,83,56,30.24,30.12,8,2,8,0.00
2013-1-9,86.9,75.8,68.7,73.6,69.0,66.0,99,81,53,30.30,30.17,10,2,10,0.00
2013-1-10,84.7,74.6,68.2,71.6,67.5,63.5,99,80,51,30.30,30.21,13,3,13,0.30
2013-1-11,82.2,72.1,65.7,70.5,65.3,63.1,97,81,56,30.27,30.14,11,2,11,0.28
2013-1-12,82.8,72.2,66.0,69.8,67.3,64.8,97,85,60,30.19,30.08,10,2,11,0.80
2013-1-13,80.8,72.0,66.7,69.6,66.3,64.9,95,83,62,30.18,30.06,10,2,10,0.53
2013-1-14,80.8,70.9,63.9,67.5,63.1,59.0,97,78,49,30.19,30.12,11,2,11,0.18
2013-1-15,80.4,69.8,61.5,68.9,64.8,60.3,99,85,61,30.16,30.06,14,2,14,0.31
2013-1-16,80.6,70.6,63.7,69.8,65.9,62.4,99,86,56,30.12,30.01,11,2,12,0.25
2013-1-17,71.2,64.2,54.3,70.0,60.1,45.3,99,87,63,30.19,30.00,17,4,17,0.12
2013-1-18,62.8,54.6,42.8,55.0,46.7,36.1,81,75,62,30.36,30.18,9,3,9,0.00
2013-1-19,75.9,63.8,54.3,61.0,55.2,48.4,87,74,57,30.30,30.14,8,3,14,0.00
2013-1-20,77.7,66.3,60.3,63.9,60.0,55.8,94,81,60,30.21,30.05,6,2,6,0.00
2013-1-21,74.7,65.5,59.5,63.3,57.8,52.3,88,76,64,30.13,30.04,9,2,9,0.00
2013-1-22,68.0,59.8,50.9,52.7,41.2,25.3,75,53,23,30.32,30.11,5,2,5,0.00
2013-1-23,69.8,57.3,48.6,47.3,40.3,32.7,86,56,29,30.40,30.30,6,2,6,0.00
2013-1-24,72.3,58.2,47.7,55.2,49.7,44.1,96,76,37,30.38,30.29,6,1,6,0.00
2013-1-25,74.5,60.5,51.3,62.4,53.4,48.4,99,81,40,30.35,30.22,9,2,9,0.00
2013-1-26,74.7,62.1,51.6,62.1,56.3,51.3,99,84,55,30.31,30.20,6,1,7,0.00
2013-1-27,80.4,66.1,55.0,65.3,56.8,53.2,99,76,41,30.33,30.22,8,2,8,0.00
2013-1-28,81.9,70.7,62.4,66.6,62.5,58.1,97,77,50,30.34,30.22,8,2,8,0.00
2013-1-29,82.4,71.0,63.0,69.6,65.8,61.5,99,85,57,30.25,30.09,15,3,15,0.00
2013-1-30,77.9,72.2,67.8,68.7,67.2,64.6,96,85,71,30.11,29.92,25,7,25,0.00
2013-1-31,69.8,57.8,49.3,68.0,46.4,32.9,99,68,38,30.28,29.93,20,3,20,0.72